Fort Collins, CO

7:14 AM MDT on October 20, 2017 (GMT -0600)
Fort Collins-Loveland Municipal

Weather History for KFNL - November, 2014

Change the Weather History Date:

Sunday, November 16, 2014

  Actual Average Record
Temperature  
Mean Temperature 13 °F -  
Max Temperature 28 °F - 81 °F (2016)
Min Temperature -2 °F - -2 °F (2014)
Degree Days  
Heating Degree Days 52    
Month to date heating degree days  
Cooling Degree Days 0    
Month to date cooling degree days  
Moisture  
Dew Point 4 °F    
Average Humidity 71    
Maximum Humidity 92    
Minimum Humidity 47    
Precipitation  
Precipitation 0.00 in - 0.97 in (2002)
Sea Level Pressure  
Sea Level Pressure 30.11 in    
Wind  
Wind Speed 6 mph (South)    
Max Wind Speed 12 mph    
Max Gust Speed -    
Visibility 10 miles    
Events      
T = Trace of Precipitation, MM = Missing Value Source: NWS Daily Summary

Daily Weather History Graph

Daily Weather History Graph

Search for Another Location

Airport or City:

Trip Planner

Search our weather history database for the weather conditions in past years. The results will help you decide how hot, cold, wet, or windy it might be!

Date:

Astronomy

Nov. 16, 2014 Rise Set
Actual Time 6:47 AM MST 4:41 PM MST
Civil Twilight 6:18 AM MST 5:11 PM MST
Nautical Twilight 5:45 AM MST 5:44 PM MST
Astronomical Twilight 5:12 AM MST 6:16 PM MST
Moon 12:55 AM MST (11/16) 1:37 PM MST (11/16)
Length of Visible Light 10h 52m
Length of Day
9h 54m
Waning Crescent, 30% of the Moon is Illuminated
Nov 16
Waning Crescent
Nov 22
New
Nov 29
First Quarter
Dec 6
Full
Dec 14
Last Quarter

Hourly Weather History & Observations

Time (MST) Temp. Windchill Dew Point Humidity Pressure Visibility Wind Dir Wind Speed Gust Speed Precip Events Conditions
12:15 AM 6.8 °F -4.8 °F -0.4 °F 72% 30.14 in 10.0 mi WSW 6.9 mph - N/A   Scattered Clouds
12:35 AM 3.2 °F -10.3 °F -2.2 °F 78% 30.13 in 10.0 mi South 8.1 mph - N/A   Clear
12:55 AM 3.2 °F -6.2 °F -0.4 °F 85% 30.13 in 10.0 mi SSW 4.6 mph - N/A   Clear
1:15 AM 1.4 °F -13.5 °F -0.4 °F 92% 30.13 in 10.0 mi South 9.2 mph - N/A   Clear
1:35 AM 3.2 °F -7.8 °F -0.4 °F 85% 30.12 in 10.0 mi South 5.8 mph - N/A   Clear
1:55 AM 3.2 °F -9.1 °F -0.4 °F 85% 30.12 in 10.0 mi South 6.9 mph - N/A   Clear
2:15 AM 5.0 °F -5.6 °F 1.4 °F 85% 30.11 in 10.0 mi South 5.8 mph - N/A   Clear
2:35 AM 3.2 °F -4.2 °F -2.2 °F 78% 30.10 in 10.0 mi SSW 3.5 mph - N/A   Clear
2:55 AM 3.2 °F -7.8 °F -0.4 °F 85% 30.09 in 10.0 mi SSW 5.8 mph - N/A   Clear
3:15 AM 1.4 °F -11.3 °F -2.2 °F 85% 30.09 in 10.0 mi South 6.9 mph - N/A   Clear
3:35 AM -0.4 °F -13.4 °F -2.2 °F 92% 30.09 in 10.0 mi South 6.9 mph - N/A   Clear
3:55 AM 1.4 °F -9.9 °F -2.2 °F 85% 30.08 in 10.0 mi South 5.8 mph - N/A   Clear
4:15 AM 1.4 °F -11.3 °F -2.2 °F 85% 30.07 in 10.0 mi South 6.9 mph - N/A   Clear
4:35 AM 1.4 °F -11.3 °F -0.4 °F 92% 30.07 in 10.0 mi South 6.9 mph - N/A   Clear
4:55 AM -2.2 °F -16.8 °F -7.6 °F 78% 30.08 in 10.0 mi South 8.1 mph - N/A   Clear
5:15 AM -0.4 °F -12.0 °F -4.0 °F 85% 30.07 in 2.5 mi South 5.8 mph - N/A   Clear
5:35 AM -0.4 °F -8.3 °F -2.2 °F 92% 30.07 in 10.0 mi SSW 3.5 mph - N/A   Clear
5:55 AM 1.4 °F - -0.4 °F 92% 30.07 in 10.0 mi Calm Calm - N/A   Clear
6:15 AM 3.2 °F - 1.4 °F 92% 30.08 in 10.0 mi Calm Calm - N/A   Clear
6:35 AM 1.4 °F - -2.2 °F 85% 30.08 in 5.0 mi Calm Calm - N/A   Partly Cloudy
6:55 AM -0.4 °F - -2.2 °F 92% 30.08 in 8.0 mi Calm Calm - N/A   Partly Cloudy
7:15 AM -0.4 °F -10.4 °F -4.0 °F 85% 30.10 in 6.0 mi NNW 4.6 mph - N/A   Scattered Clouds
7:35 AM 1.4 °F -6.2 °F -0.4 °F 92% 30.09 in 1.2 mi NNW 3.5 mph - N/A   Overcast
7:55 AM 1.4 °F - -2.2 °F 85% 30.10 in 9.0 mi Calm Calm - N/A   Mostly Cloudy
8:15 AM 1.4 °F -6.2 °F -0.4 °F 92% 30.10 in 10.0 mi NNW 3.5 mph - N/A   Clear
8:35 AM 3.2 °F -6.2 °F -0.4 °F 85% 30.10 in 10.0 mi NNW 4.6 mph - N/A   Clear
8:55 AM 6.8 °F - 3.2 °F 85% 30.11 in 10.0 mi Calm Calm - N/A   Clear
9:15 AM 8.6 °F - 5.0 °F 85% 30.11 in 10.0 mi Calm Calm - N/A   Clear
9:35 AM 10.4 °F - 6.8 °F 85% 30.12 in 10.0 mi Calm Calm - N/A   Clear
9:55 AM 10.4 °F - 6.8 °F 85% 30.12 in 10.0 mi Calm Calm - N/A   Clear
10:15 AM 15.8 °F 8.6 °F 10.4 °F 79% 30.13 in 10.0 mi NNE 4.6 mph - N/A   Clear
10:35 AM 17.6 °F 12.3 °F 10.4 °F 73% 30.13 in 10.0 mi North 3.5 mph - N/A   Clear
10:55 AM 17.6 °F - 8.6 °F 68% 30.11 in 10.0 mi Calm Calm - N/A   Clear
11:15 AM 17.6 °F 10.7 °F 8.6 °F 68% 30.11 in 10.0 mi SSW 4.6 mph - N/A   Clear
11:35 AM 19.4 °F 11.5 °F 10.4 °F 68% 30.10 in 10.0 mi South 5.8 mph - N/A   Clear
11:55 AM 19.4 °F 12.8 °F 10.4 °F 68% 30.09 in 10.0 mi South 4.6 mph - N/A   Clear
12:15 PM 21.2 °F 14.9 °F 10.4 °F 63% 30.09 in 10.0 mi SSE 4.6 mph - N/A   Clear
12:35 PM 21.2 °F - 10.4 °F 63% 30.09 in 10.0 mi Calm Calm - N/A   Clear
12:55 PM 24.8 °F 16.9 °F 12.2 °F 59% 30.09 in 10.0 mi South 6.9 mph - N/A   Clear
1:15 PM 24.8 °F 17.9 °F 12.2 °F 59% 30.07 in 10.0 mi SSE 5.8 mph - N/A   Clear
1:35 PM 24.8 °F 16.1 °F 10.4 °F 54% 30.07 in 10.0 mi South 8.1 mph - N/A   Partly Cloudy
1:55 PM 24.8 °F 19.1 °F 12.2 °F 59% 30.07 in 10.0 mi South 4.6 mph - N/A   Clear
2:15 PM 26.6 °F 21.2 °F 12.2 °F 55% 30.08 in 10.0 mi SSW 4.6 mph - N/A   Clear
2:35 PM 28.4 °F 20.4 °F 10.4 °F 47% 30.08 in 10.0 mi South 8.1 mph - N/A   Clear
2:55 PM 28.4 °F 22.2 °F 12.2 °F 51% 30.08 in 10.0 mi SSW 5.8 mph - N/A   Clear
3:15 PM 28.4 °F 21.2 °F 10.4 °F 47% 30.08 in 10.0 mi SSW 6.9 mph - N/A   Clear
3:35 PM 26.6 °F 19.1 °F 10.4 °F 51% 30.09 in 10.0 mi South 6.9 mph - N/A   Clear
3:55 PM 26.6 °F 21.2 °F 10.4 °F 51% 30.10 in 10.0 mi South 4.6 mph - N/A   Clear
4:15 PM 24.8 °F 16.9 °F 10.4 °F 54% 30.11 in 10.0 mi South 6.9 mph - N/A   Clear
4:35 PM 21.2 °F 10.9 °F 8.6 °F 58% 30.11 in 10.0 mi South 9.2 mph - N/A   Clear
4:55 PM 24.8 °F 15.3 °F 8.6 °F 50% 30.10 in 10.0 mi SE 9.2 mph - N/A   Clear
5:15 PM 21.2 °F 11.7 °F 8.6 °F 58% 30.11 in 10.0 mi SE 8.1 mph - N/A   Clear
5:35 PM 19.4 °F 9.5 °F 8.6 °F 63% 30.11 in 10.0 mi SSE 8.1 mph - N/A   Clear
5:55 PM 19.4 °F 7.9 °F 6.8 °F 58% 30.12 in 10.0 mi ESE 10.4 mph - N/A   Clear
6:15 PM 21.2 °F 9.5 °F 6.8 °F 54% 30.12 in 10.0 mi East 11.5 mph - N/A   Clear
6:35 PM 23.0 °F 13.9 °F 6.8 °F 50% 30.13 in 10.0 mi East 8.1 mph - N/A   Clear
6:55 PM 19.4 °F 10.4 °F 3.2 °F 49% 30.13 in 10.0 mi East 6.9 mph - N/A   Clear
7:15 PM 21.2 °F - 5.0 °F 50% 30.14 in 10.0 mi Calm Calm - N/A   Clear
7:35 PM 17.6 °F 5.7 °F 6.8 °F 63% 30.14 in 10.0 mi South 10.4 mph - N/A   Clear
7:55 PM 17.6 °F 8.2 °F 3.2 °F 53% 30.15 in 10.0 mi South 6.9 mph - N/A   Clear
8:15 PM 15.8 °F 5.1 °F 1.4 °F 53% 30.15 in 10.0 mi SSW 8.1 mph - N/A   Clear
8:35 PM 14.0 °F 6.5 °F 3.2 °F 62% 30.15 in 10.0 mi SSE 4.6 mph - N/A   Clear
8:55 PM 10.4 °F -2.4 °F 1.4 °F 67% 30.16 in 10.0 mi WSW 9.2 mph - N/A   Clear
9:15 PM 17.6 °F 12.3 °F 8.6 °F 68% 30.15 in 10.0 mi SSW 3.5 mph - N/A   Clear
9:35 PM 21.2 °F 13.6 °F 10.4 °F 63% 30.15 in 10.0 mi SSW 5.8 mph - N/A   Clear
9:55 PM 17.6 °F 8.2 °F 3.2 °F 53% 30.15 in 10.0 mi South 6.9 mph - N/A   Clear
10:15 PM 17.6 °F - 6.8 °F 63% 30.17 in 10.0 mi Calm Calm - N/A   Clear
10:35 PM 14.0 °F 2.9 °F 1.4 °F 57% 30.15 in 10.0 mi SE 8.1 mph - N/A   Clear
10:55 PM 12.2 °F 1.7 °F 5.0 °F 73% 30.15 in 10.0 mi SSE 6.9 mph - N/A   Clear
11:15 PM 14.0 °F 1.2 °F 6.8 °F 73% 30.15 in 10.0 mi SSE 10.4 mph - N/A   Clear
11:35 PM 12.2 °F -0.2 °F 3.2 °F 67% 30.15 in 10.0 mi SE 9.2 mph - N/A   Clear
11:55 PM 10.4 °F -2.4 °F 1.4 °F 67% 30.16 in 10.0 mi South 9.2 mph - N/A   Clear